Probability
0 0 0 0 0 0 0 0 0 0 0 0 0 0 0 0 0 0 0 0 0 0 0 0 0 0 0 0 0 0 0 0 0 0 0 0 0 0 0 0 0 0 0 0
0 0 0 0 0 0 0 0 0 0 0 0 0 0 0 0 0 0 0 0 0 0 0 0 0 0 0 0 0 0 0 0 0 0 0 0 0 0 0 0 0 0 0 0
0 0 0 0 0 0 0 0 0 0 0 0 0 0 0 0 0 0 0 0 0 0 0 0 0 0 0 0 0 0 0 0 0 0 0 0 0 0 0 0 0 0 0 0
0 0 0 0 0 0 0 0 0 0 0 0 0 0 0 0 0 0 0 0 0 0 0 0 0 0 0 0 0 0 0 0 0 0 0 0 0 0 0 0 0 0 0 0
0 0 0 0 0 0 0 0 0 0 0 0 0 0 0 0 0 0 0 0 0 0 0 0 0 0 0 0 0 0 0 0 0 0 0 0 0 0 0 0 0 0 0 0
0 0 0 0 0 0 0 0 0 0 0 0 0 0 0 0 0 0 0 0 0 0 0 0 0 0 0 0 0 0 0 0 0 0 0 0 0 0 0 0 0 0 0 0
0 0 0 0 0 0 0 0 0 0 0 0 0 0 0 0 0 0 0 0 0 0 0 0 0 0 0 0 0 0 0 0 0 0 0 0 0 0 0 0 0 0 0 0
0 0 0 0 0 0 0 0 0 0 0 0 0 0 0 0 0 0 0 0 0 0 0 0 0 0 0 0 0 0 0 0 0 0 0 0 0 0 0 0 0 0 0 0
0 0 0 0 0 0 0 0 0 0 0 0 0 0 0 0 0 0 0 0 0 0 0 0 0 0 0 0 0 0 0 0 0 0 0 0 0 0 0 0 0 0 0 0
0 0 0 0 0 0 0 0 0 0 0 0 0 0 0 0 0 0 0 0 0 0 0 0 0 0 0 0 0 0 0 0 0 0 0 0 0 0 0 0 0 0 0 0
0 0 0 0 0 0 0 0 0 0 0 0 0 0 0 0 0 0 0 0 0 0 0 0 0 0 0 0 0 0 0 0 0 0 0 0 0 0 0 0 0 0 0 0
0 0 0 0 0 0 0 0 0 0 0 0 0 0 0 0 0 0 0 0 0 0 0 0 0 0 0 0 0 0 0 0 0 0 0 0 0 0 0 0 0 0 0 0
0 0 0 0 0 0 0 0 0 0 0 0 0 0 0 0 0 0 0 0 0 0 0 0 0 0 0 0 0 0 0 0 0 0 0 0 0 0 0 0 0 0 0 0
0 0 0 0 0 0 0 0 0 0 0 0 0 0 0 0 0 0 0 0 0 0 0 0 0 0 0 0 0 0 0 0 0 0 0 0 0 0 0 0 0 0 0 0
0 0 0 0 0 0 0 0 0 0 0 0 0 0 0 0 0 0 0 0 0 0 0 0 0 0 0 0 0 0 0 0 0 0 0 0 0 0 0 0 0 0 0 0
0 0 0 0 0 0 0 0 0 0 0 0 0 0 0 0 0 0 0 0 0 0 0 0 0 0 0 0 0 0 0 0 0 0 0 0 0 0 0 0 0 0 0 0
0 0 0 0 0 0 0 0 0 0 0 0 0 0 0 0 0 0 0 0 0 0 0 0 0 0 0 0 0 0 0 0 0 0 0 0 0 0 0 0 0 0 0 0
0 0 0 0 0 0 0 0 0 0 0 0 0 0 0 0 0 0 0 0 0 0 0 0 0 0 0 0 0 0 0 0 0 0 0 0 0 0 0 0 0 0 0 0
0 0 0 0 0 0 0 0 0 0 0 0 0 0 0 0 0 0 0 0 0 0 0 0 0 0 0 0 0 0 0 0 0 0 0 0 0 0 0 0 0 0 0 0
0 0 0 0 0 0 0 0 0 0 0 0 0 0 0 0 0 0 0 0 0 0 0 0 0 0 0 0 0 0 0 0 0 0 0 0 0 0 0 0 0 0 0 0
0 0 0 0 0 0 0 0 0 0 0 0 0 0 0 0 0 0 0 0 0 0 0 0 0 0 0 0 0 0 0 0 0 0 0 0 0 0 0 0 0 0 0 0
0 0 0 0 0 0 0 0 0 0 0 0 0 0 0 0 0 0 0 0 0 0 0 0 0 0 0 0 0 0 0 0 0 0 0 0 0 0 0 0 0 0 0 0
0 0 0 0 0 0 0 0 0 0 0 0 0 0 0 0 0 0 0 0 0 0 0 0 0 0 0 0 0 0 0 0 0 0 0 0 0 0 0 0 0 0 0 0
0 0 0 0 0 0 0 0 0 0 0 0 0 0 0 0 0 0 0 0 0 0 0 0 0 0 0 0 0 0 0 0 0 0 0 0 0 0 0 0 0 0 0 0
0 0 0 0 0 0 0 0 0 0 0 0 0 0 0 0 0 0 0 0 0 0 0 0 0 0 0 0 0 0 0 0 0 0 0 0 0 0 0 0 0 0 0 0
0 0 0 0 0 0 0 0 0 0 0 0 0 0 0 0 0 0 0 0 0 0 0 0 0 0 0 0 0 0 0 0 0 0 0 0 0 0 0 0 0 0 0 0
0 0 0 0 0 0 0 0 0 0 0 0 0 0 0 0 0 0 0 0 0 0 0 0 0 0 0 0 0 0 0 0 0 0 0 0 0 0 0 0 0 0 0 0
Height
5811 5812 5812 5812 5813 5813 5814 5814 5815 5815 5815 5815 5814 5814 5813 5813 5812 5812 5812 5812 5812 5812 5812 5812 5812 5812 5811 5810 5809 5808 5806 5804 5802 5800 5797 5794 5791 5788 5785 5781 5778 5774 5770 5767
5810 5810 5810 5810 5810 5810 5811 5811 5811 5811 5811 5812 5811 5810 5810 5809 5809 5809 5808 5808 5808 5809 5809 5809 5809 5809 5808 5807 5806 5805 5804 5802 5800 5798 5795 5793 5790 5787 5784 5781 5777 5774 5771 5767
5807 5807 5807 5807 5808 5807 5807 5807 5807 5807 5808 5807 5807 5806 5806 5805 5805 5805 5805 5805 5805 5805 5805 5806 5806 5805 5805 5804 5803 5802 5801 5799 5798 5795 5793 5791 5788 5785 5783 5780 5777 5774 5771 5767
5803 5804 5804 5807 5804 5804 5803 5803 5803 5802 5802 5802 5802 5802 5801 5801 5801 5801 5801 5801 5801 5801 5801 5802 5802 5801 5801 5801 5800 5799 5798 5796 5795 5793 5791 5789 5786 5784 5781 5778 5776 5773 5770 5767
5799 5799 5799 5801 5800 5799 5798 5798 5797 5797 5797 5797 5797 5797 5796 5796 5796 5796 5796 5796 5797 5797 5797 5797 5797 5797 5797 5797 5796 5795 5794 5793 5792 5790 5788 5786 5784 5782 5779 5777 5774 5771 5769 5766
5795 5794 5794 5796 5794 5794 5794 5792 5791 5791 5792 5792 5792 5792 5792 5791 5791 5791 5791 5792 5792 5792 5792 5792 5792 5792 5792 5792 5792 5791 5790 5789 5788 5787 5785 5783 5781 5779 5777 5775 5772 5770 5767 5765
5789 5788 5789 5788 5788 5789 5789 5787 5785 5785 5785 5785 5786 5786 5786 5785 5785 5786 5786 5786 5787 5787 5787 5787 5787 5787 5787 5787 5787 5787 5786 5785 5784 5783 5782 5780 5778 5776 5774 5772 5770 5767 5765 5763
5782 5782 5784 5782 5781 5782 5781 5779 5778 5779 5779 5779 5779 5779 5779 5780 5780 5780 5780 5780 5781 5781 5781 5782 5782 5782 5782 5782 5782 5782 5781 5781 5780 5779 5778 5776 5775 5773 5771 5769 5767 5765 5763 5761
5776 5776 5775 5773 5773 5773 5772 5772 5771 5771 5772 5772 5771 5772 5772 5773 5773 5773 5774 5774 5774 5775 5775 5775 5776 5776 5776 5776 5776 5776 5776 5776 5775 5774 5773 5772 5771 5769 5767 5766 5764 5762 5760 5758
5766 5766 5766 5764 5764 5764 5764 5763 5763 5763 5763 5763 5763 5764 5764 5765 5766 5766 5767 5767 5768 5768 5768 5769 5769 5769 5770 5770 5770 5770 5770 5770 5770 5769 5768 5767 5766 5765 5763 5762 5760 5758 5757 5755
5755 5756 5755 5755 5754 5754 5753 5753 5753 5753 5754 5754 5754 5755 5755 5756 5757 5758 5759 5759 5760 5761 5761 5761 5762 5762 5763 5763 5764 5764 5764 5764 5764 5763 5763 5762 5761 5760 5759 5757 5756 5754 5753 5751
5744 5745 5743 5743 5743 5743 5742 5742 5743 5743 5744 5744 5744 5745 5746 5747 5748 5749 5750 5751 5751 5752 5753 5754 5754 5755 5755 5756 5756 5757 5757 5757 5757 5757 5756 5756 5755 5754 5753 5752 5751 5749 5748 5746
5731 5731 5730 5730 5731 5731 5730 5731 5731 5731 5732 5733 5733 5734 5735 5736 5737 5739 5740 5741 5742 5743 5744 5745 5745 5746 5747 5748 5748 5749 5749 5749 5750 5750 5750 5749 5749 5748 5747 5746 5745 5744 5742 5741
5718 5717 5717 5718 5718 5718 5718 5718 5718 5719 5719 5720 5721 5722 5723 5724 5726 5727 5729 5730 5731 5732 5734 5735 5736 5737 5738 5739 5740 5740 5741 5741 5742 5742 5742 5742 5742 5741 5741 5740 5739 5738 5736 5735
5705 5704 5704 5704 5704 5704 5704 5705 5705 5706 5706 5707 5707 5708 5710 5711 5713 5715 5717 5718 5720 5721 5723 5724 5726 5727 5728 5729 5730 5731 5732 5732 5733 5733 5734 5734 5734 5734 5733 5733 5732 5731 5730 5729
5690 5690 5690 5690 5690 5690 5690 5690 5691 5692 5693 5693 5694 5695 5697 5698 5700 5702 5704 5706 5708 5710 5711 5713 5714 5716 5717 5719 5720 5721 5722 5723 5724 5724 5725 5725 5725 5725 5725 5725 5724 5724 5723 5722
5675 5675 5675 5675 5676 5676 5676 5676 5677 5678 5679 5680 5681 5682 5683 5684 5686 5689 5691 5693 5695 5697 5699 5700 5702 5704 5706 5708 5709 5710 5712 5713 5714 5714 5715 5716 5716 5716 5716 5716 5716 5715 5715 5714
5660 5660 5660 5661 5661 5661 5661 5662 5663 5663 5665 5666 5667 5668 5669 5671 5673 5675 5678 5680 5682 5684 5686 5688 5690 5692 5694 5695 5697 5699 5700 5702 5703 5704 5705 5705 5706 5706 5706 5706 5706 5706 5705 5704
5645 5645 5645 5646 5646 5646 5647 5648 5648 5650 5651 5652 5653 5655 5656 5658 5659 5661 5664 5666 5669 5671 5674 5675 5677 5679 5681 5683 5685 5686 5688 5690 5691 5693 5694 5695 5695 5696 5696 5696 5696 5696 5695 5695
5631 5631 5631 5631 5631 5632 5633 5634 5635 5636 5637 5638 5640 5641 5643 5644 5646 5648 5650 5653 5655 5658 5660 5662 5664 5666 5668 5670 5672 5674 5676 5677 5679 5681 5682 5683 5684 5685 5685 5685 5685 5685 5685 5684
5616 5616 5616 5617 5618 5618 5619 5620 5621 5622 5623 5624 5626 5628 5630 5631 5633 5634 5636 5639 5642 5644 5647 5649 5651 5654 5656 5657 5659 5661 5663 5664 5666 5668 5670 5671 5672 5673 5673 5674 5674 5674 5674 5673
5602 5602 5602 5603 5603 5604 5605 5606 5607 5608 5610 5611 5612 5614 5616 5618 5619 5621 5623 5626 5628 5630 5633 5635 5638 5640 5643 5644 5646 5648 5650 5651 5653 5655 5657 5658 5659 5660 5661 5662 5662 5662 5662 5662
5588 5589 5589 5589 5590 5590 5591 5592 5593 5594 5596 5597 5599 5600 5602 5604 5606 5608 5610 5613 5615 5617 5619 5622 5624 5627 5629 5631 5633 5635 5636 5638 5640 5642 5644 5645 5647 5648 5649 5650 5650 5650 5650 5650
5575 5575 5575 5576 5576 5577 5577 5578 5580 5581 5582 5584 5585 5587 5588 5590 5592 5594 5596 5599 5601 5603 5605 5608 5610 5613 5615 5617 5619 5621 5623 5625 5627 5629 5630 5632 5633 5635 5636 5637 5637 5637 5637 5637
5561 5561 5562 5563 5563 5564 5564 5565 5566 5568 5569 5571 5572 5574 5575 5577 5579 5581 5583 5585 5587 5589 5592 5594 5597 5599 5601 5604 5606 5608 5610 5612 5614 5615 5617 5619 5620 5622 5623 5624 5624 5624 5624 5624
5548 5549 5549 5550 5550 5551 5551 5552 5553 5555 5556 5557 5559 5561 5562 5564 5566 5568 5570 5571 5573 5576 5578 5580 5583 5585 5588 5590 5592 5594 5596 5598 5600 5602 5604 5606 5607 5608 5609 5610 5611 5611 5611 5611
5536 5536 5537 5537 5538 5539 5539 5540 5541 5542 5543 5544 5546 5548 5549 5551 5553 5554 5556 5558 5560 5562 5564 5567 5569 5572 5574 5577 5579 5581 5583 5585 5587 5589 5591 5592 5594 5595 5596 5597 5597 5598 5598 5598
Wind_Speed
7 8 10 11 11 12 12 13 14 14 15 15 16 17 17 17 16 16 15 15 14 14 13 13 13 13 13 13 13 14 15 15 16 16 17 18 18 18 18 19 19 19 19 19
9 10 11 12 12 13 14 14 15 17 17 17 19 18 18 18 17 17 16 16 15 15 14 14 14 14 14 14 14 14 15 15 16 16 17 17 17 18 18 18 18 18 18 18
10 11 13 13 13 14 15 16 17 19 19 19 19 19 19 19 18 17 17 16 16 16 15 15 15 15 15 14 14 14 15 15 15 16 16 17 17 17 17 17 17 17 17 17
13 13 14 13 15 16 17 17 18 19 19 19 20 20 20 19 19 18 17 17 17 17 17 17 16 16 16 15 15 15 15 15 15 16 16 16 17 17 17 17 17 17 16 16
16 16 17 16 17 18 18 19 19 20 20 20 21 21 20 20 20 19 18 18 18 18 18 18 18 18 17 16 16 16 15 15 15 15 16 16 16 17 17 17 17 17 16 15
19 19 20 19 19 19 19 21 21 21 21 21 21 21 21 21 20 20 19 19 19 19 19 19 18 18 18 17 17 17 16 16 16 16 16 16 16 16 17 17 17 16 15 15
22 22 21 22 22 22 22 23 23 23 23 22 22 22 22 22 21 21 20 20 20 20 20 20 19 19 19 18 18 17 17 17 16 16 16 16 16 17 17 17 17 16 15 15
24 24 24 24 25 25 26 26 27 26 25 25 25 24 24 23 22 22 22 21 21 21 21 20 20 20 19 19 18 18 18 17 17 17 17 17 17 17 17 17 17 16 15 15
28 27 27 28 28 28 29 29 29 29 28 28 27 27 26 25 24 24 23 23 23 23 22 22 21 21 20 20 19 19 19 18 18 18 18 18 17 17 17 17 16 16 16 15
31 30 30 32 32 32 31 32 32 31 31 30 30 29 29 28 27 26 25 25 24 24 23 23 23 22 22 21 21 20 20 20 19 19 19 19 18 18 18 17 17 17 16 16
34 33 34 34 35 35 35 36 35 34 33 32 32 32 31 30 29 28 27 27 26 26 25 24 24 24 23 23 23 22 22 21 21 20 20 20 20 19 19 19 18 18 17 17
37 36 38 37 37 37 38 38 37 36 36 35 35 34 34 33 32 31 30 29 29 28 27 27 26 25 25 25 24 24 24 23 22 22 21 21 21 21 20 20 20 19 19 18
40 39 40 40 40 39 39 39 39 38 38 37 37 37 36 35 34 33 32 32 31 30 30 29 29 27 27 26 26 26 25 25 25 24 23 23 22 22 22 21 21 21 21 20
41 42 42 42 42 42 42 41 41 40 39 39 39 38 38 38 37 36 35 34 34 33 32 31 31 30 29 28 28 28 27 27 27 26 25 24 24 23 23 23 22 22 22 22
44 44 44 44 44 44 44 44 43 42 41 41 41 40 40 39 39 38 38 37 36 35 34 33 32 31 31 31 30 30 29 29 28 28 27 27 26 25 25 24 24 24 24 24
44 45 45 46 45 45 45 45 45 44 43 42 42 41 41 40 40 39 39 39 38 37 36 35 34 33 33 33 32 32 31 31 30 30 29 29 28 27 27 27 26 26 25 25
46 45 46 46 46 46 46 45 45 44 43 42 42 41 41 41 41 40 40 40 39 38 38 37 36 35 35 35 35 34 33 33 33 32 31 31 30 30 29 29 29 28 28 27
45 45 45 46 46 45 44 44 44 43 42 42 41 41 41 41 41 41 41 40 40 39 38 38 38 37 37 37 37 36 36 35 35 34 34 33 33 32 32 31 31 31 30 30
45 45 44 45 45 44 43 43 43 42 42 42 42 41 41 40 41 41 41 41 40 39 39 38 38 38 38 38 38 39 38 38 37 36 36 36 35 35 34 34 33 33 32 32
44 44 44 44 44 43 43 42 42 42 41 42 42 41 41 41 41 41 41 41 41 40 39 39 39 39 39 39 39 40 40 40 40 39 38 38 38 37 36 36 35 34 34 33
44 44 44 43 43 43 43 43 43 42 42 42 42 41 41 41 41 41 41 41 41 41 41 40 40 40 40 40 40 40 40 41 42 41 40 39 39 38 38 37 37 36 36 35
42 42 42 42 42 42 43 43 42 42 42 42 41 41 41 41 40 40 40 40 40 41 41 41 40 41 41 41 41 41 41 41 42 42 42 41 41 40 39 39 38 37 37 36
41 41 42 42 42 42 42 42 42 42 42 41 40 40 40 40 41 40 40 39 39 40 41 41 40 40 41 42 41 41 42 42 42 42 42 41 41 41 41 40 39 39 39 39
40 40 41 41 41 41 41 41 41 41 41 41 40 40 40 39 40 40 40 39 40 40 41 40 40 40 41 42 41 41 42 42 42 42 42 42 41 41 41 41 40 40 40 40
40 40 40 40 40 40 40 40 41 41 42 41 41 41 40 40 40 39 39 39 40 40 40 41 41 41 41 41 41 41 41 41 42 42 42 43 43 42 42 42 41 41 41 40
41 41 40 40 39 39 39 39 39 40 41 41 40 40 40 39 39 40 39 39 40 40 40 40 41 41 41 41 40 41 41 41 40 41 41 41 41 41 42 42 42 42 42 42
39 39 38 38 38 37 37 37 38 38 38 39 39 38 39 39 39 39 39 40 40 40 40 40 41 41 41 41 40 40 41 41 41 40 40 40 40 40 40 41 41 41 41 41
Wind_Direction
265 275 277 276 272 266 259 256 257 259 261 268 273 279 283 285 285 283 280 277 274 272 274 278 282 287 293 299 306 313 318 322 327 331 334 338 342 345 348 351 354 356 358 -0
269 274 277 278 277 274 270 265 262 263 266 269 272 276 280 282 283 283 280 277 273 272 273 276 280 284 289 295 301 308 313 318 323 327 331 334 338 341 344 347 350 353 356 358
275 274 278 280 280 281 279 274 271 269 271 272 275 276 276 277 280 281 279 277 274 273 273 274 277 281 285 291 297 302 308 313 318 322 327 330 334 336 339 342 344 347 350 354
281 278 278 281 281 281 280 276 274 272 271 272 274 276 276 276 277 277 276 274 273 273 273 274 276 279 282 287 292 297 302 307 312 317 321 325 329 332 335 338 340 342 344 348
281 278 279 280 281 282 282 277 276 275 273 272 274 275 273 274 275 276 274 272 272 273 274 274 276 278 280 283 288 292 297 302 307 311 315 319 324 328 331 333 335 337 340 343
281 279 279 280 278 278 278 277 278 278 277 275 274 273 272 273 273 274 273 272 271 271 272 273 275 276 278 281 284 288 292 297 301 306 310 314 318 323 326 329 331 332 334 337
281 279 277 277 276 276 273 275 277 277 277 275 272 271 270 271 272 271 271 270 270 270 270 270 271 273 276 279 282 284 287 292 296 300 305 309 313 317 321 324 326 328 329 332
280 277 274 276 274 272 274 275 275 276 276 275 273 271 270 270 270 269 269 268 268 268 268 268 269 270 272 275 278 280 283 287 291 295 300 304 308 312 315 318 322 324 325 327
276 276 276 273 271 271 271 273 274 274 273 273 272 271 270 269 269 268 268 268 267 267 267 267 267 267 269 271 274 276 279 282 286 291 295 299 304 307 310 313 316 318 320 322
273 273 271 271 270 269 269 269 269 270 269 268 268 269 269 268 268 266 266 266 266 266 266 265 265 266 267 268 271 273 275 279 282 286 290 294 298 302 305 308 310 312 314 316
272 271 270 268 269 269 268 268 268 268 268 268 267 267 266 266 266 265 264 264 264 265 265 264 264 264 265 266 268 270 273 276 279 282 285 289 292 296 300 303 304 306 308 310
271 270 270 270 269 270 270 271 271 270 268 267 267 266 265 264 264 264 262 261 262 262 263 263 263 263 263 264 266 267 270 273 275 278 281 284 288 291 294 298 300 301 302 304
272 271 270 270 270 270 271 272 272 271 270 268 266 265 264 263 262 261 261 261 261 261 261 261 262 262 262 263 264 266 268 271 273 275 278 280 283 286 290 292 295 297 298 300
270 270 270 270 271 271 271 271 271 271 270 269 267 265 263 262 260 259 259 259 259 260 260 260 260 260 261 262 263 264 267 269 271 273 275 277 279 282 285 288 290 292 294 296
270 270 271 271 271 271 272 271 271 270 269 268 267 265 262 261 260 259 258 259 259 258 259 259 259 258 259 260 261 262 264 267 269 271 273 275 276 278 281 283 286 288 291 293
271 270 271 271 271 271 271 271 270 269 268 267 266 265 263 261 259 258 258 258 259 259 257 257 257 257 257 258 259 261 262 264 266 269 271 273 274 276 278 280 282 285 287 290
272 272 272 271 271 271 271 270 269 268 267 266 265 264 263 261 259 257 257 257 258 258 257 257 256 256 256 256 257 258 260 262 264 266 269 271 273 274 276 278 280 282 285 287
273 273 272 272 272 271 271 269 268 267 265 265 265 263 262 261 259 257 256 256 257 258 257 257 257 256 256 255 256 256 258 260 262 264 267 269 271 272 274 276 278 280 282 284
274 273 272 270 269 269 269 268 267 266 265 263 263 263 262 262 260 258 256 255 255 257 256 256 256 255 255 255 256 256 256 257 260 262 264 267 269 271 273 275 277 279 281 283
274 272 271 269 268 267 266 267 266 265 264 264 263 263 263 262 261 259 257 255 255 255 255 254 255 255 255 256 256 257 257 257 258 260 263 265 267 269 271 274 276 278 280 281
273 272 270 269 267 266 265 265 265 264 264 263 263 263 262 262 262 260 258 256 255 255 254 254 254 255 256 256 257 257 258 258 258 260 261 264 266 268 270 273 275 277 279 280
272 271 270 268 268 266 265 265 265 264 264 264 263 262 262 261 259 258 258 257 256 255 254 254 254 255 256 256 257 258 259 260 260 260 261 262 264 266 269 272 274 276 277 279
271 270 269 269 269 268 266 266 265 264 264 264 264 262 261 260 258 258 258 257 256 255 255 254 254 255 255 256 256 257 259 260 260 260 261 262 263 265 268 270 272 273 275 278
271 270 269 267 267 267 266 265 264 264 263 263 263 262 261 261 260 259 259 258 255 254 254 253 254 255 256 256 257 258 258 259 260 260 261 262 264 266 267 269 270 272 275 277
270 270 269 268 267 267 266 266 265 264 264 263 263 262 262 262 261 260 260 259 256 254 254 253 253 254 255 256 257 258 258 258 259 260 260 261 263 264 266 268 270 271 273 275
270 270 269 268 268 268 266 266 266 265 264 263 262 261 262 262 262 261 260 259 257 255 254 254 253 253 254 256 257 258 258 258 259 260 260 261 263 264 265 267 270 272 273 275
270 270 269 269 269 269 268 266 266 266 265 264 262 262 262 263 262 261 260 259 257 256 255 254 254 254 255 256 257 258 258 258 259 260 260 261 262 264 266 268 270 272 273 275